Regional Weather Roundup
Issued by NWS Albany, NY

Home | Current Version | Previous Version | Text Only | Print | Product List | Glossary On
Versions: 1 2 3 4 5 6 7 8 9 10 11 12 13 14 15 16 17 18 19 20 21 22 23 24 25 26 27 28 29 30 31 32 33 34 35 36 37 38 39 40 41 42 43 44 45 46 47 48 49 50
000
ASUS41 KALY 292010
RWRALY

NEW YORK STATE HOURLY WEATHER ROUNDUP
NATIONAL WEATHER SERVICE ALBANY NY
400 PM EDT SUN MAR 29 2015

NOTE: "FAIR" INDICATES FEW OR NO CLOUDS BELOW 12,000 FEET WITH NO
SIGNIFICANT WEATHER AND/OR NO OBSTRUCTIONS TO VISIBILITY.

NYZ032-033-038>043-046>054-057>066-NYZ062>081-292100-
EAST


CITY           SKY/WX    TMP DP  RH WIND       PRES   REMARKS
ALBANY         MOSUNNY   42   7  23 VRB7      30.15F
GLENS FALLS    SUNNY     40  13  33 SE13      30.11F WCI  32
POUGHKEEPSIE   SUNNY     45   3  17 N3        30.15F
NEWBURGH       SUNNY     43   5  21 VRB6      30.15F
MONTGOMERY     SUNNY     44   2  17 VRB5      30.13F
WHITE PLAINS   SUNNY     42   3  19 VRB7      30.15F
ISLIP          SUNNY     41   8  25 W12       30.16F
NEW YORK CITY  SUNNY     44   2  17 N3        30.18F
CENTRAL PARK   SUNNY     44   3  18 MISG      30.20F
$$

NYZ005>009-017-018-044>046-055-056-292100-
CENTRAL


CITY           SKY/WX    TMP DP  RH WIND       PRES   REMARKS
FULTON         SUNNY     36   8  31 S9G18     30.14F WCI  29
SYRACUSE       MOSUNNY   38   8  29 SW9       30.15F WCI  31
ROME           SUNNY     35  10  35 VRB6      30.17F WCI  30
ELMIRA         SUNNY     43   6  21 SW7       30.12F
BINGHAMTON     SUNNY     36   9  32 W9        30.10F WCI  29
MONTICELLO     SUNNY     37   7  28 NW7       30.13F WCI  32
$$

NYZ026>034-041>043-292100-
NORTH


CITY           SKY/WX    TMP DP  RH WIND       PRES   REMARKS
WATERTOWN      SUNNY     37  10  32 SW13G21   30.13F WCI  29
FORT DRUM      NOT AVBL
MASSENA        PTSUNNY   37  14  38 SW16G25   30.09F WCI  28
SARANAC LAKE   SUNNY     33   3  28 W7G16     30.00F WCI  27
PLATTSBURGH    SUNNY     37  14  38 SE15      30.07F WCI  28
$$

NYZ001>004-010>016-019>021-292100-
WEST


CITY           SKY/WX    TMP DP  RH WIND       PRES   REMARKS
NIAGARA FALLS  MOSUNNY   38  16  40 S21       30.08F WCI  28
BUFFALO        MOSUNNY   36  18  48 S15       30.09F WCI  27
DUNKIRK        SUNNY     39  22  50 VRB3      30.09F
JAMESTOWN      SUNNY     37  10  32 S14G23    30.07F WCI  29
WELLSVILLE     SUNNY     39   9  29 SW14G21   30.09F WCI  31
ROCHESTER      MOSUNNY   42  14  32 SW18      30.12F
PENN YAN       SUNNY     41   8  25 S6        30.11F
$$

             KEY
       WCI = WIND CHILL INDEX
       VSB = VISIBILITY
       HX  = HEAT INDEX
$$



USA.gov is the U.S. government's official web portal to all federal, state and local government web resources and services.